Hourly Data Report for January 23, 2020

SATURNA ISLAND CS
BRITISH COLUMBIA
Current Station Operator: ECCC - MSC

48°47'02.067" N
123°02'41.082" W
24.40 m
1017101
71473
WEZ

Download Data

Hourly Data (January 2020)
Hourly Data Report for January 23, 2020
TIME
LST
Temp Definition
°C
Dew Point Definition
°C
Rel Hum Definition
%
Precip. Amount Definition
mm

Wind Dir Definition
10's deg

Wind Spd Definition
km/h
Visibility Definition
km
Stn Press Definition
kPa
Hmdx Definition


Wind Chill Definition


Weather Definition


00:00 9.3 7.7 90 0.2 17 22   100.90     LegendNANA
01:00 9.3 8.0 91 0.8 15 22   100.82     LegendNANA
02:00 9.5 8.2 92 0.8 19 28   100.85     LegendNANA
03:00 9.5 8.2 92 0.8 17 33   100.80     LegendNANA
04:00 9.5 8.4 93 1.2 18 33   100.77     LegendNANA
05:00 9.7 8.6 93 1.6 18 37   100.72     LegendNANA
06:00 9.6 8.6 94 1.8 16 42   100.66     LegendNANA
07:00 9.8 8.8 94 1.4 19 25   100.80     LegendNANA
08:00 9.6 8.8 95 2.6 17 29   100.78     LegendNANA
09:00 9.7 8.8 94 0.0 17 16   100.82     LegendNANA
10:00 9.9 9.0 94 0.2 18 28   100.87     LegendNANA
11:00 9.9 9.0 95 0.6 14 22   100.90     LegendNANA
12:00 10.4 9.4 94 0.6 17 32   100.82     LegendNANA
13:00 10.4 9.3 93 0.4 18 25   100.79     LegendNANA
14:00 10.4 9.4 94 0.2 17 29   100.73     LegendNANA
15:00 10.6 9.5 93 0.0 17 29   100.67     LegendNANA
16:00 10.3 9.4 94 0.0 17 32   100.62     LegendNANA
17:00 10.5 9.6 94 0.6 17 23   100.58     LegendNANA
18:00 10.6 9.6 94 0.6 15 22   100.49     LegendNANA
19:00 10.7 9.4 91 0.0 14 33   100.41     LegendNANA
20:00 11.1 9.3 89 0.0 17 58   100.33     LegendNANA
21:00 10.7 9.1 90 0.2 18 42   100.49     LegendNANA
22:00 10.3 8.9 91 0.2 16 38   100.48     LegendNANA
23:00 10.2 8.7 91 0.2 19 32   100.53     LegendNANA

Notes on Data Quality.

Legend

  • E = Estimated
  • M = Missing
  • NA = Not Available*
  • [empty] = Indicates an unobserved value
Date modified: